Domov               UVHVVR             MKGP            O straneh              
ZDRAVSTVENO VARSTVO RASTLIN
  MREŽA AGROMET. POSTAJ
 ► PROGNOSTIČNA OBVESTILA
AGROMETEOROLOŠKI PODATKI -
ARSO
OBVLADOVANJE TVEGANJ ZARADI
NEUGODNIH VREMENSKIH RAZMER
  ► NARAVNE NESREČE
  ► SUŠA/MOČA
  ► NAMAKANJE
  ► ŽLED (gozdarstvo)
KARTOGRAFSKI PRIKAZI
SPLETNE POVEZAVE
PROJEKTI IN PUBLIKACIJE

AGROMETEOROLOŠKA MREŽA: VREMENSKE POSTAJE IN FENOLOŠKA OPAZOVANJA

Pregled podatkov za lokacijo Ojstriška vas, meteorološka postaja 24361

Pregled senzorjev na lokaciji

ID Ime Zadnja
vrednost
Datum
zadnje
spremembe
Tip
senzorja
2036 Relativna vlaga 2 m (% RH) 49,72 % RH 18.1.2018 20:00 Generic 0 - 100 %
2037 Temperatura 2 m (°C) 6,32 °C 18.1.2018 20:00 Generic -40 - +60 °C
2038 Omočenost lista (U) 0 U 18.1.2018 20:00 A730WET
4058 Padavine (mm) 0 mm 18.1.2018 20:00 Generic 0.2 mm

Pregled podatkov zadnjih 24 ur

Zap.
št.
Datum in čas Ojstriška vas
Omočenost
lista
Padavine Relativna
vlaga
2
m
Temperatura
2
m
0 18.1.2018 20:00 0 0 49,72 6,32
1 18.1.2018 19:30 0 0 49,11 6,25
2 18.1.2018 19:00 0 0 47,79 6,4
3 18.1.2018 18:30 0 0 47,28 6,32
4 18.1.2018 18:00 0 0 45,52 6,45
5 18.1.2018 17:30 0 0 43,76 6,59
6 18.1.2018 17:00 0 0 42,59 6,94
7 18.1.2018 16:30 0 0 41,51 7,2
8 18.1.2018 16:00 0 0 38,05 7,86
9 18.1.2018 15:30 0 0 35,97 8,11
10 18.1.2018 15:00 0 0 36,41 8,18
11 18.1.2018 14:30 0 0 35,53 8,06
12 18.1.2018 14:00 0 0 35,34 7,94
13 18.1.2018 13:30 0 0 38,39 6,86
14 18.1.2018 13:00 0 0 41,32 6,15
15 18.1.2018 12:30 0 0 40,05 6,52
16 18.1.2018 12:00 0 0 40,02 6,23
17 18.1.2018 11:30 0 0 40,98 6,13
18 18.1.2018 11:00 0 0 47,06 5,13
19 18.1.2018 10:30 0 0 64,57 2,69
20 18.1.2018 10:00 0 0 69,33 1,51
21 18.1.2018 09:30 3 0 76,53 0,05
22 18.1.2018 09:00 1 0 86,15 -2,49
23 18.1.2018 08:30 0 0 87,5 -3,96
24 18.1.2018 08:00 0 0 86,5 -3,93
25 18.1.2018 07:30 0 0 86,45 -3,93
26 18.1.2018 07:00 0 0 86,69 -4,13
27 18.1.2018 06:30 0 0 84,84 -3,37
28 18.1.2018 06:00 0 0 89,21 -4,15
29 18.1.2018 05:30 0 0 87,4 -3,96
30 18.1.2018 05:00 0 0 86,4 -3,54
31 18.1.2018 04:30 0 0 86,64 -3,69
32 18.1.2018 04:00 0 0 83,27 -3
33 18.1.2018 03:30 0 0 80,34 -2,56
34 18.1.2018 03:00 0 0 79,95 -2,47
35 18.1.2018 02:30 0 0 82,66 -2,66
36 18.1.2018 02:00 0 0 81,2 -2,17
37 18.1.2018 01:30 0 0 77,78 -1,42
38 18.1.2018 01:00 0 0 81,71 -1,76
39 18.1.2018 00:30 0 0 82,1 -2,3
40 18.1.2018 00:00 0 0 83,27 -2,95
41 17.1.2018 23:30 0 0 82,61 -2,74
42 17.1.2018 23:00 0 0 81,27 -2,59
43 17.1.2018 22:30 0 0 75,65 -1,76
44 17.1.2018 22:00 0 0 73,97 -1,86
45 17.1.2018 21:30 0 0 76,97 -2,22
46 17.1.2018 21:00 0 0 74,04 -1,68
47 17.1.2018 20:30 0 0 74,97 -1,66
© 2011 Ministrstvo za kmetijstvo, gozdarstvo in prehrano. Vse pravice pridržane.